OK1CBR-13 Weather Reports


time (UTC)temp
F
wind
direction
speed
knots
gust
knots
rain 1hr
in
rain 24hr
in
rain mn
in
humidity
%
barometer
mb
20260504214733 63 0.0 0.0 0.00 0.00 0.00 59 1012.1
20260504213733 63 0.0 0.0 0.00 0.00 0.00 59 1012.2
20260504212733 63 0.0 0.0 0.00 0.00 0.00 60 1012.4
20260504211733 63 0.0 0.0 0.00 0.00 0.00 60 1012.4
20260504210733 64 0.0 0.0 0.00 0.00 0.00 60 1012.4
20260504205733 64 0.0 0.0 0.00 0.00 0.00 58 1012.5
20260504204733 64 0.0 0.0 0.00 0.00 0.00 57 1012.4
20260504203733 64 0.0 0.0 0.00 0.00 0.00 57 1012.4
20260504201733 64 0.0 0.0 0.00 0.00 0.00 56 1012.3
20260504200733 64 0.0 0.0 0.00 0.00 0.00 56 1012.3
20260504195733 65 0.0 0.0 0.00 0.00 0.00 53 1012.2
20260504194733 65 0.0 0.0 0.00 0.00 0.00 51 1012.2
20260504193733 66 0.0 0.0 0.00 0.00 0.00 49 1012.1
20260504192733 66 0.0 0.0 0.00 0.00 0.00 48 1012.2
20260504191733 67 0.0 0.0 0.00 0.00 0.00 48 1012.2
20260504190733 67 0.0 0.0 0.00 0.00 0.00 47 1012.2
20260504185733 68 0.0 0.0 0.00 0.00 0.00 46 1012.2
20260504183733 69 0.0 0.0 0.00 0.00 0.00 44 1012.2
20260504182733 70 0.0 0.0 0.00 0.00 0.00 43 1012.1
20260504181733 71 0.0 0.0 0.00 0.00 0.00 42 1012.1
20260504180733 72 0.0 0.0 0.00 0.00 0.00 42 1012.1
20260504175733 72 0.0 0.0 0.00 0.00 0.00 41 1012.2
20260504174733 73 0.0 0.0 0.00 0.00 0.00 40 1012.1
20260504173733 74 0.0 0.0 0.00 0.00 0.00 39 1012.1
20260504172733 74 0.0 0.0 0.00 0.00 0.00 38 1012.0
20260504171733 75 0.0 0.0 0.00 0.00 0.00 38 1012.1
20260504150732 80 0.0 0.0 0.00 0.00 0.00 32 1012.6
20260504140732 83 0.0 0.0 0.00 0.00 0.00 29 1012.9
20260504130732 80 0.0 0.0 0.00 0.00 0.00 30 1013.4
20260504081733 65 0.0 0.0 0.00 0.00 0.00 43 1015.7
20260504080733 65 0.0 0.0 0.00 0.00 0.00 45 1015.6
20260504050733 55 0.0 0.0 0.00 0.00 0.00 64 1015.2
20260504045733 54 0.0 0.0 0.00 0.00 0.00 64 1015.1
20260504044733 53 0.0 0.0 0.00 0.00 0.00 64 1014.9
20260504043733 53 0.0 0.0 0.00 0.00 0.00 65 1014.8
20260504042733 53 0.0 0.0 0.00 0.00 0.00 66 1014.7
20260504041733 52 0.0 0.0 0.00 0.00 0.00 66 1014.7
20260504040733 52 0.0 0.0 0.00 0.00 0.00 67 1014.8
20260504035736 52 0.0 0.0 0.00 0.00 0.00 65 1014.8
20260504034732 52 0.0 0.0 0.00 0.00 0.00 63 1014.8
20260504033732 52 0.0 0.0 0.00 0.00 0.00 63 1014.8
20260504032732 53 0.0 0.0 0.00 0.00 0.00 62 1014.8
20260504031732 53 0.0 0.0 0.00 0.00 0.00 61 1014.8
20260504030732 53 0.0 0.0 0.00 0.00 0.00 60 1014.8
20260504025732 53 0.0 0.0 0.00 0.00 0.00 60 1014.9
20260504024732 53 0.0 0.0 0.00 0.00 0.00 61 1014.8
20260504023732 53 0.0 0.0 0.00 0.00 0.00 62 1014.8
20260504022732 52 0.0 0.0 0.00 0.00 0.00 62 1014.7
20260504021732 52 0.0 0.0 0.00 0.00 0.00 63 1014.7
20260504020732 53 0.0 0.0 0.00 0.00 0.00 62 1014.8
20260504015732 54 0.0 0.0 0.00 0.00 0.00 59 1014.6
20260504014732 54 0.0 0.0 0.00 0.00 0.00 60 1014.4
20260504013732 54 0.0 0.0 0.00 0.00 0.00 60 1014.4
20260504012732 54 0.0 0.0 0.00 0.00 0.00 60 1014.4
20260504011732 54 0.0 0.0 0.00 0.00 0.00 60 1014.5
20260504010732 55 0.0 0.0 0.00 0.00 0.00 58 1014.4
20260504005732 55 0.0 0.0 0.00 0.00 0.00 57 1014.3
20260504004732 55 0.0 0.0 0.00 0.00 0.00 57 1014.2
20260504003732 56 0.0 0.0 0.00 0.00 0.00 56 1014.2
20260504002732 56 0.0 0.0 0.00 0.00 0.00 56 1014.2
20260504001732 56 0.0 0.0 0.00 0.00 0.00 56 1014.2
20260504000732 56 0.0 0.0 0.00 0.00 0.00 56 1014.2
20260503235732 57 0.0 0.0 0.00 0.00 0.00 55 1014.1
20260503234732 57 0.0 0.0 0.00 0.00 0.00 55 1014.1
20260503233732 57 0.0 0.0 0.00 0.00 0.00 55 1014.1
20260503232732 57 0.0 0.0 0.00 0.00 0.00 55 1014.2
20260503231732 57 0.0 0.0 0.00 0.00 0.00 54 1014.2
20260503230732 57 0.0 0.0 0.00 0.00 0.00 54 1014.2
20260503225732 57 0.0 0.0 0.00 0.00 0.00 54 1014.2
20260503224733 58 0.0 0.0 0.00 0.00 0.00 54 1014.3
20260503223733 58 0.0 0.0 0.00 0.00 0.00 53 1014.3
20260503222733 58 0.0 0.0 0.00 0.00 0.00 52 1014.2
20260503221732 58 0.0 0.0 0.00 0.00 0.00 52 1014.2
20260503220733 59 0.0 0.0 0.00 0.00 0.00 51 1014.3
20260503215732 59 0.0 0.0 0.00 0.00 0.00 51 1014.3